Regional Weather Roundup
Issued by NWS

Home | Current Version | Previous Version | Text Only | Print | Product List | Glossary On
Versions: 1 2 3 4 5 6 7 8 9 10 11 12 13 14 15 16 17 18 19 20 21 22 23 24 25 26 27 28 29 30 31 32 33 34 35 36 37 38 39 40 41 42 43 44 45 46 47 48 49 50
000
ASUS43 KDTX 012210
RWRMI
MICHIGAN HOURLY REGIONAL WEATHER ROUNDUP
NATIONAL WEATHER SERVICE DETROIT/PONTIAC MI
600 PM EDT SAT AUG 01 2015

NOTE: "FAIR" INDICATES FEW OR NO CLOUDS BELOW 12,000 FEET WITH NO
SIGNIFICANT WEATHER AND/OR OBSTRUCTION TO VISIBILITY.

MIZ047>049-052>055-059>063-066>070-074>076-081>083-012300-
SOUTHEAST LOWER MICHIGAN

CITY           SKY/WX    TMP DP  RH WIND       PRES   REMARKS
ADRIAN         MOSUNNY   80  53  39 NW12      29.91F
ALMA           SUNNY     79  46  31 W15       29.87S
ANN ARBOR      MOSUNNY   81  50  33 W10G21    29.89S
BAD AXE        MOSUNNY   78  52  40 W10       29.84F
CARO           MOSUNNY   78  58  50 CALM      29.84S
DETROIT CITY   SUNNY     83  48  29 W15G24    29.86F
DETROIT        MOSUNNY   84  49  29 W16G23    29.87F
FLINT          MOSUNNY   83  48  29 W17G26    29.86F
GROSSE ILE     MOSUNNY   82  45  26 W13G20    29.86F
HILLSDALE      MOSUNNY   80  52  36 W10G20    29.93F
HOWELL         SUNNY     81  40  23 W13G21    29.88F

CITY           SKY/WX    TMP DP  RH WIND       PRES   REMARKS
JACKSON        MOSUNNY   78  52  40 W13G24    29.91S
LAMBERTVILLE   SUNNY     81  49  33 NW7       29.90F
LANSING        SUNNY     81  47  30 W17G29    29.89F
LAPEER         FAIR      82  48  30 NW10      29.86S
MASON          SUNNY     79  48  33 W15G24    29.90S
MONROE         SUNNY     82  52  36 W13G22    29.87F
MT. CLEMENS    MOSUNNY   82  49  31 W18G24    29.84S
PONTIAC        MOSUNNY   82  48  30 W16       29.87S
PORT HOPE        N/A     79  56  45 VRB6      29.81F
PORT HURON     PTSUNNY   79  59  50 CALM      29.85F
TRI CITIES     SUNNY     83  50  31 W17G23    29.84F
MIDLAND        FAIR      83  48  29 W10G17    29.83S
TROY           SUNNY     83  45  26 W16G23    29.88F
SAGINAW HB     MOSUNNY   82  48  30 W14       29.83F
$$
MIZ043>046-050>051-056>058-064>065-071>073-077>080-012300-
SOUTHWEST LOWER MICHIGAN

CITY           SKY/WX    TMP DP  RH WIND       PRES   REMARKS
BATTLE CREEK   MOSUNNY   81  52  36 W14       29.93F
BENTON HARBOR  MOSUNNY   82  54  37 W6        29.92F
BIG RAPIDS     SUNNY     78  42  27 W14G20    29.88S
COLDWATER      MOSUNNY   77  50  38 W9        29.93F
FREMONT        FAIR      79  46  31 NW10      29.89S
HOLLAND        SUNNY     80  53  39 W9        29.92F
GRAND RAPIDS   MOSUNNY   81  48  31 NW16      29.91S
IONIA          FAIR      82  47  30 W13G18    29.89S
KALAMAZOO      MOSUNNY   80  55  42 W8        29.93S
LUDINGTON      SUNNY     78  56  46 SW6       29.89F
MARSHALL       MOSUNNY   81  53  37 W14G21    29.91S
MOUNT PLEASANT SUNNY     83  46  27 W9G17     29.85S
MUSKEGON       MOSUNNY   79  54  41 W10       29.90F
SOUTH HAVEN    PTSUNNY   79  50  36 W5        29.93S
$$
MIZ016>042-012300-
NORTHERN LOWER MICHIGAN

CITY           SKY/WX    TMP DP  RH WIND       PRES   REMARKS
ALPENA         MOSUNNY   73  56  54 SE6       29.82F
BEAVER ISLAND  PTSUNNY   74  57  56 SW12      29.83S
BELLAIRE       SUNNY     76  52  42 W7G16     29.85S
CADILLAC       SUNNY     78  49  35 W12       29.88S
CHARLEVOIX     SUNNY     74  56  53 SW13      29.87F
FRANKFORT      SUNNY     76  59  54 SW7       29.86F
GAYLORD        SUNNY     75  52  44 W13       29.85F
GRAYLING       SUNNY     79  52  38 W13G21    29.86S
HARBOR SPRINGS SUNNY     73  61  66 W7        29.84S
HOUGHTON LAKE  SUNNY     78  49  35 W13       29.86S
MANISTEE       SUNNY     77  52  41 W7        29.88F
OSCODA         CLOUDY    76  59  55 E6        29.80F
PELLSTON       SUNNY     76  55  48 W10G20    29.83F
ROGERS CITY    PTSUNNY   73  60  63 N8        29.82S
TRAVERSE CITY  MOSUNNY   81  51  35 W14       29.83F
$$
MIZ007>008-015-012300-
EASTERN UPPER MICHIGAN

CITY           SKY/WX    TMP DP  RH WIND       PRES   REMARKS
KINROSS        MOSUNNY   73  54  49 N6        29.81S
MACKINAC ISLAN   N/A     73  59  62 SW12G22   29.81S
NEWBERRY       MOSUNNY   77  51  38 W13G21    29.79F
S. S. MARIE    MOSUNNY   72  54  53 NW9       29.79
MUNISING         N/A     75  62  64 NE6       29.80F
$$
MIZ004>006-011>014-085-012300-
CENTRAL UPPER MICHIGAN

CITY           SKY/WX    TMP DP  RH WIND       PRES   REMARKS
MANISTIQUE     MOSUNNY   73  61  64 S14       29.80F
ESCANABA       MOSUNNY   81  48  32 W10       29.79S
MENOMINEE      SUNNY     81  48  32 NW10G17   29.82F
SAWYER-GWINN   SUNNY     79  46  31 NW17G23   29.82S
$$
MIZ001>003-009>011-084-012300-
WESTERN UPPER MICHIGAN

CITY           SKY/WX    TMP DP  RH WIND       PRES   REMARKS
IRON MOUNTAIN  MOSUNNY   80  46  30 W9G23     29.83F
HOUGHTON       MOSUNNY   76  50  40 W20G25    29.79F
COPPER HARBOR    N/A     76  51  41 NW9G23    29.76F
IRONWOOD       SUNNY     75  52  43 NW9       29.81F
$$

ABBREVIATIONS USED IN REMARKS
   TC - TEMPERATURE IN CELSIUS
  WCI - WIND CHILL INDEX
   HX - HEAT INDEX
  VSB - VISIBILITY




USA.gov is the U.S. government's official web portal to all federal, state and local government web resources and services.